TimeEST,TemperatureF,Dew PointF,Humidity,Sea Level PressureIn,VisibilityMPH,Wind Direction,Wind SpeedMPH,Gust SpeedMPH,PrecipitationIn,Events,Conditions,WindDirDegrees,DateUTC
12:53 AM,32.0,19.9,61,29.93,10.0,Variable,4.6,-,N/A,,Clear,0,2013-03-03 05:53:00
1:53 AM,30.0,19.0,64,29.94,10.0,Calm,Calm,-,N/A,,Clear,0,2013-03-03 06:53:00
2:53 AM,28.9,18.0,64,29.92,10.0,Calm,Calm,-,N/A,,Clear,0,2013-03-03 07:53:00
3:53 AM,28.9,17.1,61,29.92,10.0,Calm,Calm,-,N/A,,Clear,0,2013-03-03 08:53:00
4:53 AM,28.0,17.1,63,29.93,10.0,Calm,Calm,-,N/A,,Clear,0,2013-03-03 09:53:00
5:53 AM,28.0,18.0,66,29.94,10.0,NNW,3.5,-,N/A,,Clear,330,2013-03-03 10:53:00
6:53 AM,27.0,16.0,63,29.95,10.0,NNW,3.5,-,N/A,,Clear,340,2013-03-03 11:53:00
7:53 AM,30.0,15.1,54,29.96,10.0,Variable,4.6,-,N/A,,Clear,0,2013-03-03 12:53:00
8:53 AM,33.1,15.1,48,29.97,10.0,North,8.1,-,N/A,,Clear,350,2013-03-03 13:53:00
9:53 AM,36.0,16.0,44,29.98,10.0,NNW,6.9,19.6,N/A,,Clear,330,2013-03-03 14:53:00
10:53 AM,37.9,16.0,41,29.96,10.0,NNW,6.9,-,N/A,,Clear,340,2013-03-03 15:53:00
11:53 AM,39.9,16.0,38,29.96,10.0,North,8.1,-,N/A,,Clear,350,2013-03-03 16:53:00
12:53 PM,42.1,16.0,35,29.93,10.0,NNW,5.8,-,N/A,,Clear,340,2013-03-03 17:53:00
1:53 PM,45.0,17.1,33,29.91,10.0,WNW,9.2,-,N/A,,Clear,300,2013-03-03 18:53:00
2:53 PM,44.1,16.0,32,29.90,10.0,NNE,8.1,-,N/A,,Clear,20,2013-03-03 19:53:00
3:53 PM,45.0,17.1,33,29.90,10.0,North,10.4,-,N/A,,Clear,10,2013-03-03 20:53:00
4:53 PM,44.6,17.6,34,29.89,10.0,Variable,5.8,-,N/A,,Clear,0,2013-03-03 21:53:00
5:53 PM,41.0,17.1,38,29.92,10.0,NNE,10.4,-,N/A,,Clear,20,2013-03-03 22:53:00
6:53 PM,36.0,16.0,44,29.95,10.0,North,5.8,-,N/A,,Clear,10,2013-03-03 23:53:00
7:53 PM,33.1,17.1,52,29.97,10.0,North,4.6,-,N/A,,Clear,10,2013-03-04 00:53:00
8:53 PM,32.0,16.0,52,29.99,10.0,Calm,Calm,-,N/A,,Clear,0,2013-03-04 01:53:00
9:53 PM,30.9,16.0,54,30.01,10.0,Calm,Calm,-,N/A,,Clear,0,2013-03-04 02:53:00
10:53 PM,30.9,15.1,52,30.01,10.0,NNW,6.9,-,N/A,,Clear,340,2013-03-04 03:53:00
11:53 PM,30.9,15.1,52,30.01,10.0,NNW,10.4,21.9,N/A,,Clear,330,2013-03-04 04:53:00